Temp
64 64 64 63 63 63 64 63 63 63 63 64 64 64 63 63 61 59 60 61 62 61 61 62 61 60 56 48 52 65 70 68 64 61 59 58 54 51 49 50 51 47 48 52 52 53 53
64 64 63 63 63 63 63 63 62 63 63 64 64 64 63 61 61 60 61 61 62 62 61 60 59 59 52 42 64 63 61 61 61 60 58 58 57 55 50 48 48 48 50 49 52 52 53
63 63 63 62 62 62 62 62 62 62 63 63 63 63 63 62 60 61 62 61 61 60 60 60 59 58 50 52 63 62 62 60 61 61 58 60 60 55 51 48 50 49 47 49 49 50 51
62 62 62 62 61 62 62 62 62 62 62 63 63 62 62 62 62 61 62 62 62 62 62 63 62 56 49 65 62 63 62 60 62 61 60 60 61 56 52 50 49 45 44 41 47 49 50
62 62 62 61 61 61 62 62 61 61 62 62 62 62 62 62 61 62 62 62 62 63 63 63 57 55 49 66 59 60 59 59 61 60 60 65 58 50 49 42 37 40 36 37 41 47 47
62 62 61 61 61 61 61 61 61 61 61 61 61 61 61 61 61 61 62 63 63 61 60 60 58 51 55 53 57 59 60 61 58 57 56 53 46 42 40 36 29 35 36 37 38 43 44
61 61 61 61 60 60 61 60 60 60 60 60 60 59 60 60 61 60 57 52 47 47 51 47 48 50 53 59 60 57 58 58 57 52 44 44 37 31 36 39 41 41 39 37 37 43 41
61 61 61 61 60 60 60 60 59 59 59 59 59 59 59 60 61 60 54 46 45 47 42 53 54 55 57 58 52 54 59 52 49 41 43 40 33 40 43 43 43 41 38 34 39 44 41
61 61 61 60 60 60 59 59 59 59 59 58 58 58 59 59 60 54 50 48 53 50 41 49 53 53 54 57 49 50 55 49 45 41 40 36 39 46 44 40 41 35 36 35 37 40 41
60 60 60 60 60 60 59 59 59 59 58 58 58 58 58 59 55 50 48 53 52 50 30 39 48 53 56 54 49 55 55 51 46 39 38 38 44 43 40 39 37 36 40 42 41 33 30
60 60 60 60 60 59 59 59 58 58 58 57 57 58 58 58 50 48 51 52 51 48 16 44 48 60 56 50 50 52 55 51 41 39 40 34 38 39 38 37 40 38 42 40 38 33 29
60 60 60 59 59 59 58 59 58 58 57 57 57 57 57 53 50 50 51 50 48 30 17 39 48 47 48 48 49 51 50 52 48 42 40 37 43 41 39 42 42 44 40 37 33 31 22
60 60 59 59 59 59 58 58 58 58 57 57 56 56 55 54 47 51 49 45 29 21 39 38 41 45 43 42 45 46 42 39 34 29 26 36 37 41 44 39 42 40 34 21 24 19 24
60 60 59 59 59 58 58 58 58 57 56 56 56 55 53 54 50 49 47 39 23 33 34 44 42 43 39 43 42 43 39 34 40 36 26 24 24 37 43 38 36 35 34 23 24 20 23
59 59 59 58 58 58 58 58 58 57 56 56 55 47 48 50 51 48 42 26 27 33 40 40 42 37 37 42 41 40 36 36 37 38 32 27 29 40 41 41 40 35 29 35 25 18 18
59 59 59 58 58 57 57 57 57 57 56 55 45 45 46 51 49 45 36 32 34 41 43 42 35 38 32 36 37 36 35 39 39 42 40 35 28 37 40 41 41 37 39 30 26 22 22
60 59 58 58 57 57 57 57 57 57 56 55 44 43 49 49 48 41 28 30 39 45 45 41 37 36 36 35 36 34 33 39 42 42 41 37 35 32 37 34 35 35 32 32 32 29 24
59 60 59 58 56 56 56 56 56 56 56 50 42 37 48 48 38 32 32 38 46 44 46 44 42 40 37 37 35 34 34 36 43 41 36 37 34 25 31 36 38 35 34 34 28 28 25
57 58 59 58 56 56 56 56 56 56 54 43 40 40 48 47 31 30 37 41 42 42 42 43 42 43 41 37 34 35 36 41 44 41 36 38 33 23 30 33 35 32 35 35 33 30 25
57 57 59 58 57 56 55 55 55 56 56 44 41 36 43 40 37 37 35 37 38 43 42 44 41 43 40 37 39 34 35 41 42 41 48 45 33 32 28 31 33 31 33 35 34 23 27
57 57 58 59 58 56 55 55 55 55 55 45 39 37 38 35 39 37 38 38 37 37 42 43 39 41 39 33 35 33 36 37 41 45 40 39 32 28 32 35 35 35 35 33 32 32 30
58 57 58 59 58 57 55 55 55 55 54 43 41 40 38 37 39 37 38 38 39 39 39 37 37 40 39 35 37 36 37 34 35 36 34 36 31 30 26 33 32 32 33 33 34 36 34
58 57 57 57 59 57 55 54 54 55 52 42 40 41 43 40 37 36 37 39 41 43 41 42 41 39 37 39 40 38 39 39 38 37 35 34 30 26 25 29 31 29 32 35 33 33 37
58 57 57 57 57 58 55 55 54 54 51 43 40 40 40 38 38 40 41 42 40 40 40 41 41 39 40 44 43 40 40 39 39 35 37 31 30 27 20 27 18 34 35 37 35 38 37
58 57 57 57 57 58 56 55 54 55 53 43 40 41 40 36 39 40 40 40 40 39 38 40 40 41 42 41 36 34 32 32 32 33 33 35 31 25 21 20 30 34 33 35 34 36 39
57 57 57 56 56 57 56 55 55 54 54 44 41 40 41 39 39 41 41 39 37 34 37 38 41 43 41 37 34 29 28 29 28 27 33 34 33 30 24 21 23 33 36 39 38 32 37
57 57 56 56 56 56 56 55 55 54 54 45 42 42 42 39 40 40 40 40 40 37 36 36 37 38 40 33 32 29 29 32 29 28 26 28 28 26 25 23 30 38 39 40 28 35 37
56 56 56 56 56 56 56 56 55 54 54 47 43 42 41 38 39 41 42 40 40 39 37 38 38 37 34 32 31 30 28 31 28 30 28 28 25 25 26 24 23 40 38 36 40 36 38
56 56 55 55 55 55 55 56 55 54 54 49 42 44 43 39 40 40 40 41 41 41 41 37 39 37 38 33 31 30 31 29 29 29 29 29 34 29 31 32 40 40 40 41 40 40 39
MSLP
1020.49 1020.14 1019.82 1019.56 1019.35 1018.88 1018.38 1017.94 1017.41 1016.70 1016.24 1015.50 1014.71 1014.06 1013.53 1012.73 1012.66 1012.08 1011.97 1012.06 1012.21 1012.35 1012.47 1012.65 1013.18 1013.23 1014.32 1015.23 1013.83 1012.89 1012.67 1012.69 1013.12 1013.57 1013.43 1013.73 1014.14 1014.34 1014.77 1015.23 1015.61 1016.35 1016.66 1016.74 1016.79 1016.43 1016.31
1020.65 1020.21 1020.04 1019.80 1019.43 1019.03 1018.61 1018.22 1017.72 1017.04 1016.42 1015.79 1015.05 1014.60 1013.95 1013.39 1012.77 1012.66 1011.87 1011.89 1012.45 1012.77 1013.14 1013.22 1014.05 1014.37 1014.46 1015.21 1012.85 1012.69 1012.60 1012.87 1013.32 1013.41 1013.32 1013.53 1013.72 1013.98 1014.89 1015.69 1016.02 1016.68 1016.88 1017.17 1017.11 1016.87 1016.75
1020.79 1020.49 1020.26 1020.01 1019.62 1019.24 1018.82 1018.49 1018.03 1017.47 1016.81 1016.29 1015.56 1015.19 1014.36 1014.08 1013.75 1013.32 1013.00 1012.74 1013.40 1013.52 1013.25 1013.93 1014.14 1014.01 1015.09 1013.53 1012.63 1012.31 1012.65 1013.01 1013.02 1013.00 1013.09 1013.18 1013.36 1014.14 1014.88 1016.05 1016.69 1017.00 1017.48 1017.39 1017.68 1017.49 1017.29
1021.00 1020.67 1020.46 1020.20 1019.86 1019.42 1019.00 1018.66 1018.37 1017.81 1017.27 1016.70 1015.95 1015.36 1014.95 1014.58 1014.39 1014.31 1014.03 1013.82 1013.94 1014.17 1014.37 1014.29 1013.95 1014.19 1013.74 1012.24 1012.22 1012.36 1012.81 1012.86 1012.78 1012.76 1012.77 1012.93 1013.32 1014.44 1015.27 1016.24 1017.07 1017.67 1017.91 1018.27 1018.28 1017.97 1017.66
1021.04 1020.80 1020.56 1020.34 1019.97 1019.59 1019.26 1018.90 1018.60 1018.10 1017.47 1016.96 1016.25 1015.84 1015.16 1015.01 1014.77 1014.72 1014.69 1014.41 1014.07 1014.30 1014.11 1014.11 1014.34 1013.86 1013.13 1012.19 1012.42 1012.51 1012.52 1012.58 1012.63 1012.79 1012.92 1013.14 1013.73 1015.55 1016.33 1017.13 1018.29 1018.74 1018.81 1018.76 1018.66 1018.38 1018.16
1021.09 1020.82 1020.63 1020.41 1020.02 1019.69 1019.40 1019.08 1018.78 1018.37 1017.82 1017.22 1016.56 1016.12 1015.71 1015.15 1014.79 1014.58 1014.50 1014.73 1014.50 1014.23 1013.96 1013.77 1013.22 1013.45 1013.07 1013.01 1012.68 1012.61 1012.48 1012.52 1012.73 1013.05 1013.63 1014.29 1015.48 1016.71 1017.78 1017.92 1018.59 1019.07 1019.24 1019.13 1018.83 1018.77 1018.55
1021.29 1020.97 1020.66 1020.44 1020.09 1019.76 1019.45 1019.19 1018.91 1018.56 1018.11 1017.61 1016.98 1016.47 1015.88 1015.49 1014.92 1014.68 1014.28 1014.59 1015.00 1014.73 1014.31 1014.63 1014.38 1013.71 1013.27 1013.05 1012.67 1013.10 1013.03 1012.67 1013.08 1013.79 1015.34 1016.03 1017.21 1018.09 1018.58 1018.37 1018.26 1018.51 1018.90 1019.21 1019.28 1019.14 1019.13
1021.41 1021.09 1020.75 1020.39 1020.11 1019.81 1019.50 1019.25 1018.97 1018.69 1018.25 1017.76 1017.41 1016.79 1016.28 1015.69 1015.29 1014.98 1015.13 1016.26 1016.95 1017.17 1015.89 1014.56 1014.25 1013.91 1013.61 1013.38 1013.44 1013.62 1013.13 1013.73 1014.47 1015.79 1016.31 1017.30 1018.49 1018.91 1018.88 1018.61 1018.63 1018.87 1019.37 1019.85 1019.80 1019.64 1019.85
1021.54 1021.19 1020.81 1020.44 1020.04 1019.77 1019.51 1019.27 1018.90 1018.75 1018.43 1018.04 1017.56 1017.20 1016.64 1016.01 1015.74 1015.83 1016.42 1017.04 1017.07 1017.13 1016.71 1015.19 1014.68 1014.22 1014.17 1013.85 1014.62 1014.55 1014.19 1014.80 1015.99 1016.99 1017.59 1018.49 1019.37 1018.98 1019.11 1019.32 1019.24 1020.17 1020.03 1020.24 1020.26 1020.47 1020.62
1021.67 1021.36 1020.94 1020.52 1020.08 1019.69 1019.38 1019.15 1018.88 1018.54 1018.47 1018.10 1017.66 1017.27 1016.73 1015.85 1015.90 1016.71 1017.09 1017.15 1017.01 1017.12 1017.34 1016.70 1015.09 1014.47 1014.26 1014.29 1014.95 1015.00 1014.92 1015.46 1017.00 1018.19 1018.73 1019.64 1019.71 1019.50 1019.61 1020.02 1020.11 1020.49 1020.53 1020.62 1021.05 1021.71 1022.06
1021.81 1021.45 1021.06 1020.60 1020.18 1019.69 1019.33 1019.06 1018.78 1018.51 1018.30 1018.18 1017.89 1017.48 1017.04 1016.46 1016.72 1017.01 1017.66 1017.28 1017.09 1017.31 1017.91 1017.31 1015.64 1014.36 1014.45 1014.79 1015.45 1015.35 1015.33 1015.82 1017.79 1019.03 1019.38 1020.85 1020.45 1020.27 1020.23 1020.75 1020.48 1020.91 1021.00 1021.48 1022.11 1022.81 1023.25
1021.97 1021.54 1021.16 1020.73 1020.27 1019.83 1019.43 1019.03 1018.75 1018.46 1018.27 1018.10 1017.93 1017.69 1017.34 1017.21 1017.35 1017.34 1017.25 1017.24 1017.43 1018.05 1019.08 1017.60 1016.15 1015.32 1015.25 1015.49 1015.86 1015.95 1016.05 1016.37 1018.06 1019.29 1019.92 1020.90 1020.64 1020.87 1020.86 1020.87 1020.64 1020.95 1021.54 1022.45 1023.42 1024.26 1025.02
1022.12 1021.71 1021.25 1020.84 1020.41 1019.96 1019.48 1019.07 1018.70 1018.44 1018.25 1018.06 1017.85 1017.63 1017.38 1017.45 1017.71 1017.34 1017.41 1017.78 1018.37 1019.16 1019.80 1018.33 1017.22 1016.47 1016.35 1016.60 1016.72 1016.87 1017.33 1017.96 1018.99 1020.09 1021.53 1021.36 1021.56 1021.35 1021.10 1021.09 1021.09 1021.37 1022.33 1024.04 1025.47 1025.94 1026.40
1022.25 1021.89 1021.43 1020.98 1020.56 1020.08 1019.53 1019.05 1018.73 1018.49 1018.23 1018.05 1017.85 1017.67 1017.59 1017.48 1017.56 1017.43 1017.57 1018.11 1019.65 1020.41 1019.50 1018.28 1017.58 1017.17 1017.30 1017.23 1017.37 1017.60 1018.12 1019.10 1019.41 1019.90 1021.72 1022.14 1022.50 1021.98 1021.73 1021.65 1021.53 1022.08 1022.74 1024.12 1025.60 1026.96 1026.75
1022.22 1021.99 1021.60 1021.23 1020.77 1020.26 1019.67 1019.17 1018.81 1018.52 1018.33 1017.97 1017.70 1018.00 1017.97 1017.68 1017.47 1017.46 1018.07 1019.08 1020.37 1020.04 1019.19 1018.30 1017.65 1017.66 1017.74 1017.55 1017.67 1018.10 1018.99 1019.67 1019.86 1019.91 1020.47 1021.63 1022.41 1022.26 1021.97 1021.75 1021.92 1022.40 1023.13 1023.97 1025.40 1027.44 1027.01
1022.21 1021.98 1021.69 1021.40 1020.96 1020.45 1019.91 1019.39 1019.00 1018.66 1018.42 1018.28 1018.30 1018.37 1018.28 1017.73 1017.64 1017.86 1018.63 1019.88 1019.99 1019.43 1018.65 1018.16 1018.01 1017.91 1018.17 1018.07 1018.17 1018.57 1019.34 1019.77 1019.76 1019.70 1019.85 1021.00 1022.10 1022.51 1022.17 1021.96 1022.18 1022.33 1023.16 1023.99 1025.08 1026.55 1026.53
1022.15 1021.97 1021.75 1021.48 1021.10 1020.66 1020.15 1019.67 1019.26 1018.90 1018.56 1018.32 1018.75 1018.55 1017.92 1017.63 1017.80 1018.34 1019.87 1019.92 1019.42 1018.69 1018.23 1017.90 1017.92 1018.01 1018.23 1018.34 1018.59 1019.17 1019.88 1019.98 1019.82 1019.69 1019.68 1020.48 1021.21 1022.99 1022.63 1022.46 1022.43 1022.92 1023.21 1024.03 1024.86 1025.51 1025.81
1022.17 1021.91 1021.79 1021.54 1021.27 1020.85 1020.39 1019.85 1019.40 1019.06 1018.67 1018.44 1019.02 1019.09 1018.04 1017.63 1018.52 1019.66 1020.19 1019.72 1019.16 1018.79 1018.24 1017.89 1017.79 1017.82 1018.05 1018.34 1018.89 1019.35 1019.81 1020.03 1020.01 1019.98 1020.30 1020.79 1021.58 1022.80 1022.75 1022.52 1022.48 1022.59 1022.99 1023.59 1024.71 1025.43 1025.55
1022.20 1021.95 1021.73 1021.70 1021.43 1021.07 1020.60 1020.10 1019.59 1019.18 1019.15 1019.41 1019.62 1019.28 1018.00 1017.90 1019.34 1020.34 1019.80 1019.42 1019.10 1018.85 1018.73 1018.38 1018.21 1018.11 1018.06 1018.49 1019.11 1019.48 1019.87 1020.12 1020.04 1020.18 1020.48 1020.80 1021.74 1022.64 1022.93 1023.09 1022.90 1022.97 1023.01 1023.40 1024.11 1024.56 1024.68
1022.12 1021.91 1021.62 1021.64 1021.54 1021.27 1020.85 1020.35 1019.91 1019.56 1019.30 1019.69 1020.09 1019.95 1019.18 1019.09 1019.78 1019.84 1019.91 1019.71 1019.32 1018.95 1018.73 1018.52 1018.57 1018.43 1018.56 1018.93 1019.17 1019.81 1020.20 1020.41 1020.43 1020.51 1020.64 1020.96 1022.13 1022.69 1022.92 1022.67 1022.72 1023.14 1022.98 1023.23 1023.58 1024.30 1023.66
1021.85 1021.73 1021.52 1021.45 1021.45 1021.31 1021.03 1020.62 1020.12 1019.71 1019.49 1019.81 1020.47 1020.99 1020.63 1020.47 1020.24 1019.80 1019.65 1019.54 1019.39 1019.18 1018.99 1018.83 1018.71 1018.69 1018.92 1019.44 1019.84 1020.31 1020.77 1021.01 1021.15 1021.28 1021.43 1021.90 1022.67 1023.07 1022.89 1022.69 1022.63 1022.48 1022.55 1022.86 1023.18 1022.59 1022.54
1021.57 1021.49 1021.30 1021.20 1021.30 1021.23 1021.00 1020.72 1020.33 1019.79 1019.53 1020.12 1020.92 1021.06 1020.99 1020.58 1020.20 1019.91 1019.77 1019.53 1019.48 1019.39 1019.22 1019.23 1019.27 1019.25 1019.25 1019.55 1019.89 1020.37 1020.86 1021.38 1021.52 1022.00 1022.30 1022.82 1023.38 1023.70 1023.42 1022.94 1022.83 1022.39 1021.85 1022.00 1021.81 1021.54 1021.03
1021.05 1021.23 1021.11 1021.05 1021.00 1021.15 1021.10 1020.76 1020.39 1019.93 1019.63 1020.38 1021.06 1020.96 1020.98 1020.95 1020.42 1020.15 1019.74 1019.39 1019.18 1019.18 1019.50 1019.39 1019.45 1019.65 1019.89 1020.09 1020.28 1020.67 1020.92 1021.29 1021.65 1022.23 1022.97 1023.45 1023.91 1024.66 1024.28 1023.55 1022.80 1021.65 1019.77 1019.86 1020.01 1019.95 1019.86
1020.60 1020.80 1020.87 1020.83 1020.81 1020.88 1021.12 1020.90 1020.58 1020.22 1019.94 1020.45 1021.14 1021.24 1021.31 1021.26 1020.85 1020.08 1019.49 1019.30 1019.43 1019.43 1019.48 1019.69 1019.78 1020.01 1020.45 1020.31 1020.65 1021.01 1021.45 1021.81 1022.18 1022.78 1023.02 1023.88 1024.58 1025.00 1025.21 1024.18 1022.44 1018.92 1018.50 1018.54 1018.94 1018.56 1018.61
1020.22 1020.45 1020.62 1020.68 1020.67 1020.66 1020.92 1020.93 1020.78 1020.48 1020.27 1020.61 1021.05 1021.18 1021.32 1021.20 1020.73 1020.15 1019.84 1019.78 1019.81 1019.84 1020.02 1020.25 1020.47 1020.64 1020.65 1020.84 1021.49 1021.92 1022.28 1022.47 1022.94 1023.46 1023.60 1023.83 1024.52 1025.15 1025.24 1024.48 1021.43 1018.23 1018.38 1018.25 1018.40 1017.55 1017.04
1019.82 1020.03 1020.27 1020.40 1020.53 1020.50 1020.66 1020.85 1020.88 1020.73 1020.50 1020.84 1021.17 1021.22 1021.18 1021.17 1020.59 1020.07 1020.08 1020.09 1020.41 1020.68 1020.86 1020.90 1021.01 1021.05 1021.05 1021.70 1022.27 1022.59 1022.68 1022.52 1023.17 1023.67 1023.95 1024.34 1024.55 1024.97 1025.40 1024.50 1021.94 1018.61 1017.77 1017.59 1017.72 1017.45 1016.95
1019.27 1019.60 1019.81 1020.02 1020.17 1020.40 1020.43 1020.60 1020.84 1020.85 1020.72 1020.84 1021.23 1021.35 1021.31 1021.32 1020.56 1020.28 1020.21 1020.26 1020.36 1020.85 1021.28 1021.43 1021.48 1021.62 1021.78 1022.49 1023.01 1023.18 1022.85 1022.59 1022.99 1023.45 1024.03 1024.44 1024.91 1024.95 1024.85 1023.87 1020.93 1018.13 1017.72 1017.62 1018.02 1017.75 1017.08
1018.68 1019.05 1019.38 1019.63 1019.76 1020.04 1020.31 1020.28 1020.53 1020.70 1020.76 1020.91 1021.18 1021.26 1021.46 1021.51 1020.92 1020.65 1020.47 1020.44 1020.63 1020.79 1021.09 1021.76 1022.07 1022.20 1022.62 1023.11 1023.39 1023.18 1023.13 1022.66 1022.82 1022.81 1023.10 1023.34 1023.86 1024.09 1024.04 1023.21 1020.39 1017.88 1018.07 1018.02 1017.28 1017.17 1017.38
1017.89 1018.40 1018.74 1019.12 1019.44 1019.60 1020.00 1020.24 1020.30 1020.51 1020.62 1020.77 1021.23 1021.16 1021.30 1021.59 1021.57 1021.26 1021.10 1021.06 1020.91 1020.65 1020.73 1021.28 1021.34 1021.35 1021.54 1022.44 1023.07 1023.08 1023.08 1023.02 1022.96 1023.07 1022.52 1022.44 1021.30 1021.59 1021.64 1019.72 1018.07 1017.67 1017.28 1016.89 1017.14 1017.34 1017.62
Wind_Speed
12 13 14 15 14 15 17 18 17 18 19 19 21 20 20 22 8 9 8 8 14 22 27 26 24 23 7 4 5 3 3 5 5 4 6 5 4 4 7 7 5 4 3 5 3 6 6
13 14 13 13 13 14 16 18 18 16 17 20 20 18 20 24 11 9 15 10 24 24 22 22 12 12 10 3 5 2 2 6 5 4 5 5 5 1 7 4 4 4 6 3 7 6 6
12 13 14 14 14 13 15 17 17 16 15 18 18 18 17 19 21 13 16 27 23 20 17 16 13 5 4 8 2 4 8 6 6 4 5 4 4 2 5 7 5 4 7 6 9 7 4
11 11 11 12 13 13 13 15 16 16 16 17 18 19 15 19 15 14 12 10 14 13 11 11 8 2 6 3 2 5 3 4 5 2 1 3 6 7 4 5 6 5 6 5 4 6 3
11 12 11 10 11 12 12 14 15 15 15 15 17 18 18 14 11 7 8 7 5 5 5 6 6 5 1 4 3 3 1 5 5 2 4 5 7 5 5 7 6 7 5 4 1 2 2
12 12 12 11 10 11 12 13 14 15 15 17 17 17 15 14 11 8 2 5 4 6 8 5 3 3 4 3 3 3 3 3 4 4 5 8 7 5 5 5 7 5 6 3 4 1 2
13 13 13 13 11 10 11 13 13 13 14 15 17 18 17 14 12 11 3 4 7 5 7 4 1 2 3 6 3 7 4 2 5 10 5 5 10 4 1 2 3 8 7 5 1 2 2
12 13 13 14 13 12 11 12 13 12 13 15 16 16 16 14 9 12 4 6 2 2 5 5 2 3 2 2 8 8 5 6 7 5 2 9 5 2 3 1 6 6 8 3 2 2 2
13 14 15 14 14 13 11 11 12 12 12 14 15 16 15 14 4 7 5 3 1 1 3 7 3 4 4 6 4 8 5 4 7 7 7 7 1 3 4 6 8 5 7 4 4 2 3
14 15 16 16 16 14 12 10 11 12 12 13 15 15 17 13 5 1 3 5 3 1 7 11 9 6 4 1 7 2 3 5 8 6 4 7 5 4 5 7 3 5 2 4 6 5 3
14 15 16 17 17 16 13 11 10 10 11 11 13 15 15 10 2 3 1 3 1 4 8 9 8 4 5 7 2 8 5 9 6 4 4 2 4 7 9 3 2 5 3 4 4 5 4
13 16 17 17 19 17 15 12 9 9 9 11 12 12 11 4 3 2 5 3 3 9 2 7 5 6 5 7 5 2 5 9 5 7 8 3 2 4 2 3 4 6 6 7 5 4 4
13 15 17 18 19 19 16 13 10 7 7 9 11 12 5 1 2 4 2 3 7 9 5 6 4 5 4 7 7 5 5 6 4 7 5 6 5 4 4 4 4 5 6 5 6 6 7
13 15 17 18 19 19 17 14 11 9 6 5 7 8 5 1 2 3 3 7 11 5 3 3 2 4 6 5 4 5 4 5 6 5 5 5 6 5 6 3 3 3 4 7 7 4 5
10 14 15 17 18 18 18 15 12 8 8 7 4 3 3 3 4 2 6 8 7 6 3 2 2 6 6 4 4 5 4 2 1 3 5 6 3 3 3 2 2 2 2 3 8 3 4
8 11 13 16 17 18 17 16 13 10 8 9 2 2 3 6 4 4 7 5 3 4 1 1 3 3 2 4 4 4 3 2 2 2 1 5 6 2 2 1 4 2 5 5 4 2 4
8 8 11 14 16 17 18 17 14 11 11 4 3 3 3 4 3 6 5 1 2 2 2 2 2 3 3 2 3 2 1 2 5 4 4 4 4 3 2 3 6 2 1 5 3 3 5
8 8 10 11 14 15 16 17 16 12 13 6 2 3 3 2 6 2 3 2 4 4 5 3 3 2 3 2 3 3 2 1 5 2 3 2 5 3 1 1 1 1 3 5 6 4 1
8 10 8 10 11 13 15 16 16 11 10 1 2 3 2 3 4 3 0 2 2 3 4 5 4 4 2 3 3 2 2 2 5 4 2 1 2 4 7 5 3 3 4 3 4 3 7
9 9 8 8 11 11 14 15 15 14 6 3 2 3 5 5 1 6 2 3 2 1 2 3 2 2 3 3 5 3 1 2 3 2 4 3 3 5 7 4 4 4 5 5 5 4 4
8 9 8 6 9 10 12 14 15 14 5 3 4 1 3 1 4 3 3 1 2 3 4 4 2 3 3 2 2 2 2 2 4 5 3 3 3 2 5 6 4 5 6 8 9 7 8
9 9 8 7 6 9 10 12 13 13 3 4 2 2 3 1 1 2 2 4 4 1 2 1 1 1 2 3 4 5 5 3 3 2 2 3 0 2 4 2 1 7 9 10 12 11 13
10 9 9 8 6 7 9 11 12 12 3 3 1 1 3 3 1 3 3 4 6 6 1 0 2 3 2 1 2 2 1 2 3 6 3 3 4 3 5 4 7 9 12 15 6 6 9
11 10 9 8 7 6 7 9 11 12 5 3 2 3 3 2 0 3 3 3 3 2 4 2 2 3 2 3 4 3 6 5 5 5 2 5 4 2 3 4 2 8 3 4 12 10 11
11 10 9 9 9 7 2 6 9 10 6 3 1 3 3 1 2 2 2 3 3 3 2 2 1 0 1 4 3 3 4 2 2 5 3 2 4 1 2 3 10 4 2 6 7 8 9
13 12 10 9 9 7 5 3 7 9 6 3 1 1 2 4 4 1 3 3 3 2 2 2 2 2 4 3 3 3 4 4 2 1 4 4 4 4 2 1 6 4 1 2 2 7 1
15 14 12 10 9 9 8 3 5 7 7 3 0 1 3 1 3 3 4 5 5 3 3 1 2 1 3 2 2 4 4 4 3 5 5 2 1 5 3 3 10 7 3 2 1 6 2
16 14 13 11 10 10 9 8 5 3 5 2 1 1 3 1 4 1 1 3 2 2 5 4 3 1 3 2 3 3 3 4 1 4 7 8 7 5 4 3 11 5 4 7 5 1 2
17 16 15 13 12 10 10 9 8 5 1 4 1 0 2 3 3 1 2 3 3 1 5 2 3 4 5 4 2 2 2 1 3 4 1 4 8 7 11 10 4 5 5 4 4 4 5
Wind_Direction
21 19 18 17 8 6 6 6 7 13 26 25 30 26 22 13 54 332 334 156 115 109 106 100 102 106 69 342 259 300 220 189 126 171 155 141 146 141 132 121 96 81 120 59 345 46 56
10 20 21 12 12 7 12 10 5 11 8 11 18 24 35 24 34 3 76 148 117 112 114 113 117 111 64 266 253 208 136 120 173 178 152 136 178 196 95 78 81 112 92 78 30 19 48
12 14 13 14 11 8 12 11 8 4 4 8 12 11 45 33 35 53 78 91 106 119 111 126 153 85 151 243 217 176 145 184 185 186 150 187 169 54 133 91 161 125 73 38 25 352 38
10 10 9 12 6 5 11 11 7 8 0 3 357 6 26 55 30 42 88 89 109 108 121 152 168 136 210 262 241 88 192 167 186 233 163 118 102 100 69 118 41 70 55 96 331 358 343
10 5 2 7 2 0 2 5 8 5 358 359 356 7 8 46 25 43 23 22 35 142 191 220 209 201 257 318 41 312 63 142 144 134 53 79 69 85 37 91 49 14 132 104 323 61 316
6 4 3 358 357 356 355 356 360 4 359 351 351 358 5 10 22 2 143 178 236 297 287 263 215 92 15 312 328 343 346 101 110 105 66 47 55 72 33 66 180 149 102 87 153 300 25
7 5 1 2 357 350 346 344 350 358 354 352 351 352 354 1 10 9 37 15 12 346 37 93 239 35 357 307 49 10 359 43 43 50 77 18 77 119 71 53 162 127 108 114 80 358 9
9 7 4 2 357 351 341 344 340 349 349 349 350 346 348 352 9 15 53 71 116 221 343 15 15 31 328 305 52 346 12 72 62 77 43 34 82 288 308 241 97 85 113 81 48 51 51
8 6 3 1 358 352 346 341 338 341 344 344 344 343 345 340 23 31 63 59 340 138 74 346 352 25 335 43 64 338 25 71 69 55 50 98 350 7 82 44 94 36 117 156 150 82 65
7 7 2 1 358 354 345 342 339 338 342 340 340 347 344 329 52 182 46 333 4 93 68 325 347 5 358 14 50 336 22 105 41 113 81 77 337 72 75 73 56 95 322 108 108 85 191
6 6 5 1 2 357 349 340 337 338 339 338 340 343 350 27 285 59 30 325 317 62 65 296 315 290 345 83 176 354 348 38 78 34 85 290 28 39 58 347 330 152 92 82 86 92 76
8 7 5 5 2 359 353 343 337 336 339 337 338 340 341 17 27 329 342 354 45 45 334 334 320 353 31 21 27 28 48 52 140 66 41 75 58 59 85 32 63 147 76 47 55 67 32
11 8 7 6 3 2 358 348 337 335 340 340 338 337 354 61 298 320 4 58 40 82 275 333 342 15 65 15 33 48 32 30 94 82 8 4 8 347 43 69 26 68 63 10 3 9 220
8 7 8 6 6 4 5 359 354 337 341 342 331 332 323 120 305 345 55 49 67 249 263 277 340 36 64 8 31 26 63 42 24 77 99 119 340 7 339 56 145 63 127 149 195 190 261
359 4 6 3 3 5 7 5 1 354 341 338 350 352 343 317 337 58 70 54 175 212 269 10 6 66 2 11 97 69 56 70 337 8 121 122 11 318 40 11 70 179 72 139 103 35 43
351 7 2 4 2 3 7 7 5 11 5 358 58 43 300 322 1 58 72 130 167 209 264 205 86 40 89 349 59 67 27 315 356 62 141 196 83 359 334 42 31 74 157 63 1 141 257
348 358 1 5 1 1 2 4 359 347 346 348 39 49 255 328 68 52 93 175 182 242 212 96 137 95 98 63 67 53 6 357 3 350 56 135 102 279 24 198 179 89 45 55 114 134 170
343 343 352 0 1 359 1 1 1 350 343 41 70 29 304 19 47 20 83 27 335 2 6 37 100 83 108 73 68 97 110 51 336 334 62 11 120 142 175 344 196 185 208 157 127 224 142
326 330 339 347 360 356 357 2 359 3 23 28 81 277 321 81 91 0 328 87 101 51 30 12 26 14 34 94 89 85 89 331 8 56 107 109 24 45 353 1 359 231 207 156 115 89 200
300 311 323 337 347 355 355 357 1 357 9 76 57 22 333 45 114 120 102 16 54 5 89 92 52 22 45 40 18 147 116 2 20 78 86 92 115 165 189 200 138 215 210 193 154 137 193
281 295 307 322 336 352 354 353 354 357 348 87 35 282 187 352 346 92 72 112 107 357 20 1 45 114 122 101 48 79 62 8 20 1 41 85 195 176 242 231 208 223 208 188 200 207 193
255 274 283 303 318 335 347 350 350 358 53 74 92 95 2 101 320 99 354 199 163 206 143 302 45 353 34 147 181 210 149 197 210 42 83 4 295 50 301 32 228 264 238 220 224 233 249
221 244 267 290 291 315 336 345 348 358 47 89 315 344 95 316 43 100 230 181 204 139 245 121 172 111 105 168 115 55 99 93 150 154 148 98 125 79 272 351 328 299 232 214 204 212 204
231 229 244 262 275 291 317 340 346 355 54 121 176 109 77 286 312 225 197 166 154 200 164 148 87 134 170 107 104 75 44 68 79 41 108 132 111 98 264 353 293 246 168 181 210 241 220
232 223 231 247 272 275 227 332 341 351 23 84 146 121 124 267 220 312 148 105 90 43 74 138 41 101 21 67 64 27 346 19 40 22 42 82 122 101 131 217 291 304 184 166 180 282 217
224 216 223 236 248 267 182 307 330 342 20 78 80 130 113 121 249 267 152 177 162 167 12 47 354 343 66 86 87 168 223 225 249 354 36 61 58 123 135 189 254 256 241 195 148 292 315
220 221 222 223 235 252 205 193 301 329 2 106 137 165 91 145 257 166 184 183 134 117 128 117 166 78 35 96 150 187 243 171 203 183 166 137 167 195 191 260 281 245 225 147 114 248 192
219 216 220 223 226 237 234 198 215 295 345 91 266 127 116 175 279 273 262 152 122 149 156 185 86 333 65 154 166 225 199 231 160 169 179 173 155 193 152 204 274 158 82 179 224 290 205
214 216 212 215 221 228 225 220 195 216 276 124 294 32 125 131 234 326 325 329 320 275 141 186 178 165 178 115 196 126 220 154 184 264 355 253 193 179 187 215 254 218 228 230 184 188 210